Meteor PRIRODA - Orbit

View from above orbital plane
View from above orbital plane
View from above satellite
View from above satellite

Ground track
Ground track

The orbit data is extracted from the following two-line orbital elements,

1 12585U 81065A   13144.51960005  .00003266  00000-0  19713-3 0  5166
2 12585 097.2985 147.4729 0018588 166.9566 351.0305 15.11245731737246
Epoch (UTC): 24 May 2013 12:28:13
Eccentricity: 0.0018588
inclination: 97.2985°
perigee height: 519 km
apogee height: 545 km
right ascension of ascending node: 147.4729°
argument of perigee: 166.9566°
revolutions per day: 15.11245731
mean anomaly at epoch: 351.0305°
orbit number at epoch: 73724

The dashed part of the orbit path shows where the satellite is in the earth's shadow,  

Developed and maintained by Chris Peat, Heavens-Above GmbH. Please read the updated FAQ before sending e-mail. Imprint. DLR